User: anonymous   Login
Location: Unspecified
(0.0000°N, 0.0000°E)
Time: 03:42:44
(UTC+00:00)
Language:

WGS F1 (USA 195) - Orbit

View from above orbital plane
View from above orbital plane
View from above satellite
View from above satellite

Ground track
Ground track

The orbit data is extracted from the following two-line orbital elements,

1 32258U 07046A   18271.63110580 0.00000000  00000-0  00000-0 0    03
2 32258   0.0240 240.5376 0001000 205.4634 154.5366  1.00270000    00
Epoch (UTC): 28 September 2018 15:08:47
Eccentricity: 0.0001000
inclination: 0.0240°
perigee height: 35782 km
apogee height: 35791 km
right ascension of ascending node: 240.5376°
argument of perigee: 205.4634°
revolutions per day: 1.00270000
mean anomaly at epoch: 154.5366°
orbit number at epoch: 0

The dashed part of the orbit path shows where the satellite is in the earth's shadow,  

DLR